Wind_Speed
74 71 71 76 81 83 76 76 67 67 74 70 73 73 71 69 72 68 70 68 67 65 64 63 63 62 60 62 62 59 60 62 64 64 64 65 67 69 71 69 64 60 65 75 82
74 74 73 71 73 82 82 74 72 71 78 74 73 76 76 77 74 71 69 69 68 71 68 64 62 67 68 65 61 58 60 67 67 66 65 69 68 69 69 64 62 68 76 82 86
77 76 75 74 72 74 80 80 77 68 70 69 75 81 78 81 75 74 76 75 72 73 67 65 66 69 68 63 63 67 66 70 73 71 70 66 63 70 65 64 73 73 81 78 85
76 78 78 78 76 74 74 77 79 75 72 72 68 69 73 67 67 69 75 75 75 77 75 71 67 74 67 66 72 74 67 70 72 70 67 66 67 62 64 76 76 80 83 87 81
67 73 78 81 80 77 75 74 75 76 74 74 71 69 68 63 63 71 72 73 73 77 75 73 72 72 70 73 77 73 74 74 75 75 69 74 59 65 69 70 74 81 80 80 85
60 64 74 80 81 81 78 77 75 74 74 75 71 73 69 61 73 70 70 73 75 72 67 71 73 75 74 77 79 79 75 74 73 67 63 67 61 63 76 76 77 76 80 81 86
53 60 63 72 79 83 83 82 80 77 75 74 74 73 68 64 75 69 70 70 74 72 73 77 74 78 80 80 74 71 69 65 62 61 61 63 64 71 78 73 78 79 82 82 57
49 57 62 62 69 78 83 84 84 82 80 78 76 74 68 75 75 71 73 72 72 73 74 73 70 69 67 69 67 67 66 56 59 62 62 59 57 66 71 75 76 77 79 65 55
48 53 58 64 65 70 75 82 85 86 84 83 81 77 69 76 73 78 73 73 73 73 72 72 68 66 67 61 54 60 57 59 54 59 59 56 58 65 75 75 71 76 55 56 56
54 54 55 56 64 69 72 75 77 81 83 80 81 76 73 74 75 73 71 74 74 72 71 69 64 56 52 53 64 61 61 63 66 65 64 61 67 66 64 67 73 55 54 50 52
62 63 63 61 60 65 67 71 77 75 76 71 76 76 73 70 67 70 74 72 71 67 61 58 52 49 56 61 63 63 66 64 63 60 66 66 64 64 62 66 52 48 49 50 44
69 68 68 71 71 69 66 66 73 77 69 68 65 59 61 62 62 59 63 60 64 61 61 58 53 67 69 65 63 61 65 67 62 57 63 61 57 55 52 44 43 43 43 41 38
81 78 77 76 75 79 79 76 74 72 74 73 70 60 70 65 62 62 60 64 58 58 56 57 67 68 66 66 69 63 60 59 57 59 59 56 54 49 39 36 38 37 41 36 35
89 90 87 85 83 83 84 86 81 73 72 69 73 69 69 72 67 70 66 67 67 65 68 67 70 67 66 64 63 62 58 54 53 55 57 58 40 35 31 33 32 35 34 36 31
96 95 95 95 92 90 88 88 88 87 81 64 75 78 79 72 71 70 80 76 75 74 75 67 71 72 66 61 62 57 62 55 56 56 58 48 31 27 23 24 27 28 30 33 32
106 105 102 103 103 99 95 95 96 95 79 66 71 70 75 76 77 82 78 73 76 77 73 70 70 68 64 64 63 62 62 59 58 51 39 31 26 22 23 24 26 28 29 29 30
100 103 104 108 110 108 103 106 104 98 71 73 79 69 71 78 79 80 80 80 78 74 67 70 67 67 68 67 63 65 61 57 45 34 28 28 20 20 27 29 32 33 31 26 28
82 88 95 101 108 112 114 115 107 82 80 79 85 80 74 77 80 86 85 84 76 71 74 70 69 66 66 63 61 56 50 37 33 29 25 20 17 19 27 31 33 34 32 29 27
67 71 80 90 97 101 111 114 99 92 88 88 94 92 83 80 78 82 76 71 71 73 72 69 63 63 59 51 48 39 30 34 29 28 20 19 17 19 25 30 34 35 33 28 26
55 62 68 74 81 90 93 96 95 100 101 104 103 100 93 83 86 83 78 58 61 58 60 56 55 52 50 48 40 32 33 29 29 26 18 19 21 22 29 30 32 32 32 29 27
47 53 58 64 71 74 76 80 94 105 114 115 107 106 99 89 89 87 78 67 63 59 58 55 55 48 49 33 32 32 31 30 31 21 22 18 21 25 26 27 32 33 35 31 28
40 45 50 54 60 64 72 78 86 105 120 119 115 108 104 99 93 92 80 72 64 64 62 56 52 54 40 36 40 42 36 32 23 22 20 20 25 25 29 28 31 32 33 31 27
36 38 40 46 52 56 65 69 79 97 116 121 118 110 110 104 94 88 78 73 71 72 61 59 59 52 49 44 43 35 34 27 27 26 22 26 26 23 28 27 28 28 31 33 26
33 34 36 38 44 51 59 64 72 91 107 120 117 119 112 105 95 90 80 77 75 74 66 69 63 51 48 45 42 41 33 33 34 30 26 28 29 24 26 27 28 28 29 32 29
32 34 32 32 37 44 52 61 66 80 99 115 117 119 115 107 99 99 96 92 84 79 75 75 68 50 50 51 46 45 43 36 33 27 23 33 29 28 26 27 27 28 27 30 31
31 31 31 31 30 37 47 58 63 73 92 105 113 118 118 109 107 105 100 95 88 84 84 84 70 60 55 52 47 45 42 40 36 29 32 35 29 29 28 30 23 28 28 29 31
29 29 27 30 31 36 45 52 60 69 83 94 102 115 117 114 112 111 108 98 95 92 94 83 72 67 58 55 53 46 44 41 38 37 34 33 34 28 29 33 31 28 26 28 30
Wind_Direction
237 237 238 240 242 246 248 245 246 243 242 242 244 246 246 246 249 254 255 261 261 261 266 266 263 265 272 276 283 283 280 280 286 288 289 286 289 296 299 297 293 287 300 305 308
240 239 238 238 241 243 247 248 246 240 245 247 249 247 247 247 250 251 252 258 257 263 262 264 267 272 271 274 281 277 276 286 285 283 282 285 293 300 298 291 280 288 304 305 304
241 240 241 240 240 241 242 245 247 244 247 249 246 246 248 248 255 254 256 258 260 261 259 263 265 268 267 271 274 276 282 283 284 282 284 289 297 295 287 285 298 305 299 298 301
240 242 244 242 240 240 241 243 244 245 245 246 247 249 248 250 252 253 252 255 256 259 261 262 260 261 266 273 276 280 283 283 282 283 286 289 295 283 286 296 294 298 302 301 306
243 243 242 244 243 242 243 244 245 246 247 246 247 249 251 251 254 251 252 252 254 256 258 258 259 261 264 269 275 282 281 283 279 282 286 290 275 278 284 294 296 298 299 305 309
247 243 243 243 244 245 245 246 246 245 247 248 249 249 251 254 251 254 253 254 254 258 258 259 263 266 269 269 276 280 277 277 280 287 287 279 282 295 292 293 296 299 306 309 308
247 237 243 244 243 244 245 246 245 246 249 250 250 252 253 254 254 256 258 256 257 259 261 264 269 272 272 271 272 275 278 279 278 277 273 276 292 289 287 293 300 305 304 308 308
254 252 244 245 246 244 245 247 247 248 249 250 250 251 251 251 252 255 255 256 259 263 264 265 269 271 270 269 273 277 276 273 264 266 274 283 297 298 297 300 304 306 308 305 299
262 260 249 245 248 245 245 247 248 248 249 250 249 249 250 252 252 251 256 257 259 261 263 267 269 267 268 270 269 261 263 260 272 277 283 298 299 301 301 303 307 307 304 301 297
260 256 258 256 254 249 245 244 247 248 248 249 251 250 248 248 251 254 255 257 258 259 262 263 265 267 266 257 255 257 257 265 272 280 291 304 302 300 305 307 305 305 304 299 295
264 262 258 253 253 253 251 247 241 242 246 247 247 249 248 249 252 252 252 255 258 258 258 256 260 259 248 252 254 257 262 266 275 290 293 300 299 304 306 302 307 303 301 300 298
262 259 259 257 255 251 249 249 248 239 238 240 243 242 243 242 245 246 249 249 247 251 246 249 245 253 256 260 267 269 272 279 286 293 294 298 302 305 300 306 299 298 304 305 301
260 256 254 252 252 252 251 247 246 242 239 238 233 232 234 238 240 243 246 248 249 248 249 247 249 251 252 257 263 269 277 284 287 289 293 297 300 299 300 298 294 298 302 300 304
258 255 253 249 250 248 248 250 249 245 240 231 239 234 237 234 231 238 236 236 239 238 239 242 245 251 255 262 269 276 284 285 288 289 289 295 293 291 297 296 306 303 302 302 309
255 250 250 249 246 244 246 245 245 245 240 232 236 240 239 243 241 244 240 238 239 241 240 250 250 253 261 267 269 275 276 281 281 285 289 288 281 292 308 315 317 315 315 310 316
258 253 247 244 244 243 241 242 242 240 241 237 238 240 240 243 246 246 245 241 244 241 244 251 253 257 261 268 270 273 275 275 284 284 278 273 280 301 327 325 327 326 331 323 320
260 257 251 245 238 238 239 239 239 238 236 236 240 233 236 239 241 244 246 243 250 250 251 254 254 255 259 263 266 262 270 277 278 264 263 271 280 320 320 330 337 336 337 327 321
259 255 252 249 242 238 233 236 237 234 234 234 237 234 228 235 237 241 239 244 245 249 252 255 259 266 264 259 259 264 269 268 251 253 260 267 297 316 319 332 332 338 344 337 329
258 254 250 246 245 241 236 235 233 233 231 232 232 233 227 227 233 238 238 239 241 244 249 251 252 252 253 252 254 254 245 239 245 251 256 268 293 311 310 326 335 338 342 337 328
258 252 250 247 245 242 238 236 229 227 230 230 232 229 225 222 230 232 238 232 239 241 241 243 244 248 245 243 245 231 230 239 244 245 254 275 299 311 316 329 332 338 346 343 336
259 254 249 245 244 242 240 232 225 221 225 229 228 227 226 223 225 229 231 228 227 232 237 237 235 241 239 239 233 230 235 235 238 244 252 279 288 306 312 325 336 342 348 342 339
261 255 250 246 243 239 235 231 219 220 222 226 225 227 224 223 224 231 226 227 226 230 233 240 236 235 236 227 224 224 223 231 237 248 260 275 283 299 308 327 334 338 346 345 338
267 258 250 247 242 237 235 229 222 217 220 222 224 225 226 223 221 224 228 232 226 230 232 237 236 231 230 224 224 223 222 221 238 251 259 272 279 295 304 315 331 338 343 346 341
274 265 255 244 241 234 233 229 221 216 216 219 220 223 224 223 220 222 221 225 230 230 229 234 236 226 231 235 228 227 211 225 232 239 252 270 281 293 304 314 325 337 340 344 342
279 273 265 251 237 234 229 229 222 217 217 216 216 220 221 222 217 219 215 218 221 224 224 230 236 232 230 233 227 222 215 222 232 239 258 264 279 286 302 309 320 327 338 337 344
287 277 270 259 242 229 226 224 220 217 220 218 214 215 219 219 219 218 218 218 219 219 223 226 228 228 228 230 225 222 221 225 233 238 250 261 275 284 297 300 310 320 338 335 338
292 281 270 259 243 232 225 224 221 217 219 218 214 215 216 216 218 218 217 217 220 223 227 222 226 229 229 231 229 220 222 229 230 237 247 262 268 283 292 297 310 316 332 332 336
Height
10787 10790 10793 10797 10800 10802 10807 10813 10816 10820 10823 10827 10833 10837 10843 10844 10845 10850 10853 10856 10860 10862 10864 10864 10864 10863 10865 10861 10860 10859 10861 10860 10858 10855 10852 10848 10845 10843 10841 10840 10831 10826 10817 10808 10801
10775 10779 10781 10784 10787 10791 10793 10797 10801 10807 10811 10814 10819 10825 10828 10833 10837 10841 10839 10846 10846 10848 10852 10853 10855 10855 10855 10852 10851 10852 10854 10850 10848 10845 10843 10840 10837 10833 10827 10825 10821 10817 10808 10800 10793
10763 10766 10769 10772 10775 10779 10781 10784 10787 10791 10795 10799 10805 10812 10814 10821 10827 10830 10832 10832 10833 10835 10840 10844 10844 10843 10845 10844 10842 10842 10848 10841 10838 10836 10833 10834 10829 10824 10819 10810 10805 10800 10794 10801 10785
10750 10753 10755 10758 10762 10765 10768 10770 10774 10779 10782 10786 10791 10796 10802 10808 10815 10819 10815 10816 10820 10823 10827 10832 10832 10831 10836 10835 10831 10833 10835 10831 10827 10825 10826 10825 10820 10814 10804 10799 10798 10792 10783 10779 10775
10735 10737 10739 10742 10747 10752 10754 10758 10760 10763 10767 10771 10777 10783 10790 10800 10806 10801 10804 10805 10808 10808 10814 10818 10820 10822 10827 10824 10822 10824 10822 10822 10818 10817 10816 10815 10806 10798 10795 10789 10788 10781 10779 10771 10762
10719 10722 10723 10726 10730 10734 10740 10743 10745 10749 10753 10757 10763 10770 10779 10794 10780 10784 10795 10797 10793 10798 10801 10805 10808 10810 10815 10815 10813 10811 10812 10809 10807 10808 10807 10805 10796 10784 10784 10781 10777 10770 10765 10760 10751
10709 10708 10709 10711 10715 10718 10722 10726 10730 10736 10738 10742 10750 10758 10771 10776 10764 10775 10779 10782 10782 10784 10788 10791 10795 10800 10800 10804 10801 10801 10802 10798 10798 10797 10795 10791 10785 10777 10772 10775 10766 10759 10756 10750 10741
10698 10698 10697 10698 10700 10703 10706 10710 10715 10719 10722 10729 10738 10747 10761 10751 10755 10762 10762 10768 10769 10774 10776 10780 10784 10790 10790 10789 10791 10789 10790 10792 10787 10785 10782 10783 10775 10764 10761 10760 10756 10749 10744 10737 10731
10684 10684 10684 10685 10685 10686 10689 10692 10698 10702 10706 10714 10723 10734 10746 10734 10746 10738 10753 10754 10757 10761 10765 10768 10773 10775 10778 10780 10779 10775 10783 10783 10777 10771 10773 10770 10765 10758 10748 10749 10744 10740 10733 10726 10723
10671 10669 10668 10668 10669 10671 10673 10674 10679 10683 10690 10699 10708 10720 10720 10717 10726 10731 10736 10738 10745 10749 10754 10755 10760 10766 10766 10767 10764 10771 10776 10769 10765 10763 10761 10758 10754 10750 10747 10738 10733 10729 10722 10719 10711
10655 10654 10653 10652 10651 10651 10653 10658 10659 10665 10677 10687 10691 10704 10704 10707 10709 10715 10721 10728 10732 10739 10743 10743 10753 10759 10753 10753 10760 10765 10761 10758 10757 10753 10751 10749 10747 10743 10736 10731 10726 10719 10712 10708 10704
10633 10633 10634 10633 10633 10633 10635 10639 10637 10650 10662 10667 10676 10689 10689 10694 10697 10700 10708 10718 10721 10730 10729 10737 10752 10738 10738 10748 10750 10748 10747 10747 10748 10746 10741 10741 10738 10734 10729 10725 10719 10712 10706 10700 10696
10604 10607 10609 10609 10613 10612 10612 10613 10615 10630 10643 10654 10664 10676 10671 10682 10688 10691 10700 10704 10712 10716 10720 10727 10726 10729 10734 10739 10738 10737 10737 10738 10740 10738 10736 10736 10732 10727 10724 10720 10713 10708 10700 10695 10690
10572 10573 10577 10581 10587 10586 10590 10593 10600 10609 10619 10646 10649 10667 10665 10663 10683 10674 10687 10692 10700 10703 10703 10716 10711 10718 10722 10726 10724 10726 10728 10729 10730 10729 10729 10731 10726 10723 10719 10714 10708 10701 10695 10687 10685
10529 10536 10543 10547 10552 10558 10567 10571 10576 10582 10591 10630 10633 10639 10643 10658 10661 10667 10662 10677 10684 10685 10689 10704 10700 10707 10712 10715 10715 10720 10718 10722 10721 10722 10722 10723 10723 10718 10714 10708 10703 10697 10691 10685 10681
10480 10491 10501 10507 10516 10523 10535 10539 10543 10551 10591 10618 10612 10625 10633 10643 10644 10640 10647 10660 10657 10674 10686 10688 10689 10696 10698 10700 10705 10709 10710 10711 10715 10715 10715 10716 10717 10711 10707 10703 10697 10691 10688 10680 10675
10432 10440 10455 10464 10471 10489 10501 10497 10509 10533 10598 10601 10592 10611 10616 10620 10620 10620 10632 10643 10652 10660 10674 10665 10673 10678 10682 10693 10698 10697 10700 10705 10708 10707 10709 10711 10710 10707 10703 10696 10690 10687 10682 10675 10669
10394 10400 10409 10418 10428 10445 10458 10461 10486 10556 10569 10573 10569 10580 10597 10592 10601 10600 10614 10622 10640 10652 10651 10660 10667 10675 10676 10681 10682 10689 10694 10698 10698 10702 10705 10704 10703 10703 10698 10693 10689 10683 10677 10670 10666
10365 10369 10371 10375 10388 10405 10419 10437 10490 10521 10535 10543 10535 10541 10565 10574 10583 10577 10597 10615 10624 10633 10641 10644 10655 10652 10661 10667 10673 10680 10685 10686 10693 10696 10699 10698 10699 10699 10696 10691 10686 10680 10675 10667 10663
10340 10341 10345 10353 10360 10373 10390 10419 10471 10492 10497 10493 10502 10518 10535 10556 10554 10564 10578 10611 10612 10620 10622 10635 10637 10644 10649 10654 10665 10673 10675 10682 10686 10691 10693 10692 10692 10693 10689 10686 10684 10678 10671 10665 10661
10321 10320 10325 10330 10337 10351 10374 10400 10431 10449 10446 10451 10476 10489 10511 10536 10538 10544 10566 10588 10594 10604 10609 10617 10624 10633 10636 10655 10661 10667 10672 10674 10678 10685 10686 10687 10688 10688 10685 10684 10679 10673 10667 10663 10660
10304 10304 10307 10312 10320 10332 10342 10356 10382 10403 10407 10423 10443 10468 10490 10504 10519 10533 10557 10572 10589 10588 10595 10608 10619 10620 10638 10646 10649 10653 10660 10667 10674 10677 10680 10683 10681 10683 10680 10679 10676 10671 10668 10662 10659
10289 10291 10294 10298 10303 10312 10317 10335 10351 10368 10381 10396 10423 10452 10460 10481 10511 10526 10553 10568 10571 10571 10592 10595 10599 10615 10623 10631 10639 10648 10656 10663 10666 10670 10676 10674 10676 10680 10677 10676 10673 10670 10666 10661 10658
10276 10277 10279 10284 10288 10293 10299 10310 10327 10337 10351 10364 10398 10417 10442 10468 10501 10516 10538 10546 10554 10564 10579 10574 10586 10604 10617 10627 10635 10640 10650 10652 10655 10663 10668 10669 10670 10673 10674 10671 10669 10667 10664 10661 10657
10264 10263 10265 10270 10273 10277 10285 10292 10305 10317 10327 10341 10369 10395 10421 10449 10477 10486 10492 10504 10522 10540 10558 10557 10573 10599 10606 10611 10623 10632 10638 10643 10652 10659 10663 10661 10665 10668 10669 10669 10667 10665 10664 10660 10656
10253 10252 10252 10254 10260 10263 10266 10271 10284 10296 10302 10323 10350 10371 10397 10429 10443 10461 10481 10495 10514 10523 10530 10540 10563 10581 10592 10601 10611 10623 10632 10637 10644 10653 10656 10655 10660 10661 10663 10665 10667 10662 10660 10658 10655
10243 10241 10241 10242 10245 10248 10252 10258 10268 10278 10287 10306 10339 10355 10377 10405 10418 10433 10451 10484 10499 10510 10513 10534 10560 10569 10585 10592 10598 10613 10623 10632 10638 10643 10648 10650 10651 10658 10659 10657 10657 10660 10658 10655 10652